User: anonymous
Location: Santa Barbara
(34.4500°N, 119.7700°W)
Time: 20:12:30
(UTC-07:00)
Language:

Cosmos 1626 Rocket - Orbit

View from above orbital plane
View from above orbital plane
View from above satellite
View from above satellite

Ground track
Ground track

The orbit data is extracted from the following two-line orbital elements,

1 15495U 85009B   14238.07642303  .00000217  00000-0  23533-4 0  8617
2 15495 082.5226 068.3539 0021886 114.1139 246.2368 14.83259562597827
Epoch (UTC): 26 August 2014 01:50:02
Eccentricity: 0.0021886
inclination: 82.5226°
perigee height: 604 km
apogee height: 634 km
right ascension of ascending node: 68.3539°
argument of perigee: 114.1139°
revolutions per day: 14.83259562
mean anomaly at epoch: 246.2368°
orbit number at epoch: 59782

The dashed part of the orbit path shows where the satellite is in the earth's shadow,  

DLR